www.pogodaiklimat.ru
ПОГОДА в Катовице

Архив погоды в Катовице (Польша)

Время
(UTC), дата
19 13.05
20 13.05
21 13.05
22 13.05
23 13.05
00 14.05
01 14.05
02 14.05
03 14.05
04 14.05
05 14.05
06 14.05
07 14.05
08 14.05
09 14.05
10 14.05
11 14.05
12 14.05
13 14.05
14 14.05
15 14.05
16 14.05
17 14.05
18 14.05
19 14.05
20 14.05
21 14.05
22 14.05
23 14.05
00 15.05
01 15.05
02 15.05
03 15.05
04 15.05
05 15.05
06 15.05
07 15.05
08 15.05
09 15.05
10 15.05
11 15.05
12 15.05
13 15.05
14 15.05
15 15.05
16 15.05
17 15.05
18 15.05
19 15.05
20 15.05
21 15.05
22 15.05
23 15.05
00 16.05
01 16.05
02 16.05
03 16.05
04 16.05
05 16.05
06 16.05
07 16.05
08 16.05
09 16.05
10 16.05
11 16.05
12 16.05
13 16.05
14 16.05
15 16.05
16 16.05
17 16.05
18 16.05
19 16.05
20 16.05
21 16.05
22 16.05
23 16.05
00 17.05
01 17.05
02 17.05
03 17.05
04 17.05
05 17.05
06 17.05
07 17.05
08 17.05
09 17.05
10 17.05
11 17.05
12 17.05
13 17.05
14 17.05
15 17.05
16 17.05
17 17.05
18 17.05
19 17.05
20 17.05
21 17.05
22 17.05
23 17.05
00 18.05
01 18.05
02 18.05
03 18.05
04 18.05
05 18.05
06 18.05
07 18.05
08 18.05
09 18.05
10 18.05
11 18.05
12 18.05
13 18.05
14 18.05
15 18.05
16 18.05
17 18.05
18 18.05
19 18.05
20 18.05
21 18.05
22 18.05
23 18.05
00 19.05
01 19.05
02 19.05
03 19.05
04 19.05
05 19.05
06 19.05
07 19.05
08 19.05
09 19.05
10 19.05
11 19.05
12 19.05
13 19.05
14 19.05
15 19.05
16 19.05
17 19.05
18 19.05
19 19.05
20 19.05
21 19.05
22 19.05
23 19.05
00 20.05
01 20.05
02 20.05
03 20.05
04 20.05
05 20.05
06 20.05
07 20.05
08 20.05
09 20.05
10 20.05
11 20.05
12 20.05
13 20.05
14 20.05
15 20.05
16 20.05
17 20.05
Ветер
(напр.,м/с)
Видим. Явления Облачность Т
(С)
Тd
(С)
f
(%)
Тe
(С)
Тes
(С)
Комфортность P
(гПа)
Po
(гПа)
Тmin
(С)
Tmax
(С)
R
(мм)
R24
(мм)
S
(см)
В 2 50 км ясно +12.6 0.0 42 +12 +12 1017.6 984.1
штиль 0 50 км ясно +11.3 -0.2 45 +11 +11 1017.7 984.0
ЮВ 1 45 км н/о +9.8 +0.4 52 +10 +10 1017.8 984.0
штиль 0 45 км н/о +8.9 +0.1 54 +9 +9 1017.9 984.0
штиль 0 40 км н/о +7.1 -0.1 60 +7 +7 1018.0 983.8
штиль 0 35 км н/о +5.4 +1.1 74 +5 +5 1017.9 983.5
штиль 0 30 км н/о +5.1 +1.0 75 +4 +4 1017.7 983.3
штиль 0 30 км н/о +5.3 +1.0 74 +5 +5 1017.6 983.2
штиль 0 30 км н/о +4.5 +1.3 80 +4 +4 1017.6 983.1
штиль 0 30 км н/о +5.1 +2.8 85 +4 +4 1017.7 983.3
В 1 30 км ясно +10.6 +2.7 58 +11 +13 1017.2 983.5
В 3 25 км ясно +14.0 +2.9 47 +13 +17 1016.8 983.5 +4.2 +16.6
В 5 30 км ясно +16.5 +2.1 38 +16 +20 1016.7 983.7
В 6 30 км 1/1 1000 м
[Cu hum]
+18.3 +1.3 32 +18 +22 1016.4 983.6
В 5 {11} 25 км 3/1 1000 м
[Cu med, cong Ci fib]
+19.5 +1.4 30 +20 +26 1016.2 983.5
В 4 35 км 3/1 1000 м
[Cu med, cong Ci fib]
+19.8 +1.2 29 +20 +29 1016.0 983.4
В 5 35 км 3/1 1000 м
[Cu med, cong Ci sp]
+20.2 +1.1 28 +20 +28 1015.8 983.2
В 4-9 {11} 30 км 3/1 1500 м
[Cu med, cong Ci sp]
+20.9 +1.2 27 +21 +30 комфорт 1015.2 982.7
В 5 {11} 35 км 3/1 1500 м
[Cu med, cong Ci sp]
+21.1 +1.9 28 +21 +27 комфорт 1014.9 982.4
В 4 40 км 3/1 1500 м
[Cu med, cong Ci sp]
+21.1 +3.8 32 +21 +27 комфорт 1014.8 982.3
В 4 {11} 35 км 3/1 1500 м
[Cu med, cong Ci sp]
+20.8 +2.6 30 +21 +25 комфорт 1014.6 982.1
СВ 6 40 км 1/1 1500 м
[Cu med, cong]
+20.1 +2.4 31 +20 +21 1014.5 981.9
В 5 50 км 1/1 1500 м
[Cu med, cong]
+19.2 +2.9 34 +19 +20 1014.7 982.0
СВ 4 {11} 50 км 1/1 1500 м
[Sc diur, vesp]
+18.1 +2.8 36 +18 +18 1015.1 982.3 +13.9 +21.4
СВ 3 45 км 1/1 1000 м
[Sc]
+16.8 +2.4 38 +17 +17 1015.5 982.5
В 3 50 км ясно +15.1 +2.6 43 +15 +15 1016.1 982.9
СВ 3 45 км н/о +13.8 +2.4 46 +13 +13 1016.4 983.1
В 4 45 км н/о +13.5 +2.4 47 +12 +12 1016.7 983.3
В 5 50 км н/о +14.2 +2.4 45 +13 +13 1016.5 983.2
СВ 3 45 км н/о +13.4 +2.3 47 +12 +12 1016.4 983.0
В 3 50 км н/о +12.2 +2.3 51 +11 +11 1016.6 983.1
В 3 50 км н/о +11.4 +2.1 53 +10 +10 1016.7 983.1
В 3 45 км н/о +10.3 +2.4 58 +9 +9 1016.9 983.2
СВ 3 40 км н/о +10.8 +2.1 55 +9 +9 1017.1 983.4
В 3 40 км 8/4 2000 м
[Sc Ac trans]
+11.1 +2.9 57 +10 +10 1017.3 983.6
В 3 40 км 8/4 2000 м
[Sc Ac trans Ci fib]
+12.1 +3.8 57 +11 +12 1017.4 983.8 +10.3 +18.2
В 4-9 {9} 35 км 5/3 2000 м
[Sc Ac trans Ci fib]
+15.2 +3.0 44 +14 +18 1017.1 983.9
В 7 {11} 30 км 3/0
[Ac trans]
+17.9 +2.2 35 +17 +20 1016.9 984.0
В 6 {11} 30 км 3/1 1500 м
[Cu med, cong Ac trans]
+18.7 +2.1 33 +18 +23 1016.7 983.9
В 6 35 км 1/1 1500 м
[Cu med, cong]
+19.5 +2.8 33 +19 +25 1016.5 983.8
В 5 30 км 1/1 1500 м
[Cu med, cong]
+20.0 +1.4 29 +20 +28 1016.3 983.7
В 5-10 {11} 40 км 3/3 1500 м
[Cu Sc]
+20.7 +3.0 31 +21 +27 комфорт 1015.9 983.4
В 6 {11} 30 км 1/1 1500 м
[Cu med, cong]
+20.8 +2.6 30 +21 +26 комфорт 1015.4 982.9
В 6 {12} 35 км 1/1 1500 м
[Cu med, cong]
+20.8 +3.0 31 +21 +24 комфорт 1015.1 982.6
В 6 {12} 35 км 3/1 1500 м
[Cu med, cong Ci fib]
+20.9 +4.0 33 +21 +23 комфорт 1015.0 982.5
В 6 30 км 3/1 1500 м
[Cu med, cong Ci fib]
+20.2 +4.2 35 +20 +22 1015.1 982.5
В 6 {11} 40 км 3/3 1500 м
[Sc diur, vesp]
+19.1 +3.7 36 +19 +19 1015.5 982.8
В 5 {12} 45 км 3/1 1500 м
[Sc diur, vesp Ac lent]
+17.8 +2.1 35 +17 +17 1015.8 982.9 +12.1 +21.3
В 4 50 км 3/1 1500 м
[Sc diur, vesp Ac trans]
+16.0 +2.0 39 +15 +15 1016.4 983.3
В 5 45 км 1/0
[Ac trans]
+15.3 +1.4 39 +14 +14 1016.7 983.5
В 6 50 км н/о +15.1 +1.2 39 +14 +14 1016.7 983.5
В 4 45 км н/о +13.7 +1.7 44 +12 +12 1017.0 983.6
В 3 40 км н/о +12.1 +2.0 50 +11 +11 1017.4 983.8
В 1 45 км н/о +11.3 +2.3 54 +11 +11 1017.7 984.0
СВ 1 45 км н/о +10.3 +2.4 58 +10 +10 1017.7 983.9
В 1 45 км н/о +8.4 +3.0 69 +8 +8 1018.0 984.0
СВ 1 35 км н/о +7.9 +3.0 71 +7 +7 1018.1 984.0
В 1 35 км н/о +8.3 +4.7 78 +8 +8 1018.3 984.3
В 2 35 км 1/0
[Ci fib]
+10.9 +4.4 64 +10 +12 1018.3 984.6
В 2 40 км 1/0
[Ci fib]
+13.5 +5.1 57 +13 +18 1017.8 984.4 +7.5 +17.9
В 2 35 км 1/0
[Ci fib]
+15.9 +5.8 51 +16 +24 1017.4 984.3
В 2 30 км 3/1 1000 м
[Cu med, cong Ci sp]
+17.9 +6.4 47 +18 +28 1017.2 984.3
В 4 35 км 3/1 1500 м
[Cu med, cong Ci sp]
+18.8 +5.6 42 +19 +27 1017.0 984.2
В 4-9 {9} 35 км 3/1 1500 м
[Cu med, cong Ci sp]
+19.8 +5.8 40 +21 +30 комфорт 1016.5 983.8
В 5 35 км 3/1 1500 м
[Cu med, cong Ci sp]
+20.7 +5.1 36 +21 +29 комфорт 1015.6 983.1
В 6 {13} 40 км 4/3 2000 м
[Cu med, cong Ci sp]
+21.7 +5.1 34 +22 +26 комфорт 1015.1 982.7
В 7 {12} 30 км 5/4 2000 м
[Cu hum Ac trans Ci sp]
+22.0 +5.4 34 +22 +24 комфорт 1014.8 982.4
В 6 {13} 35 км 5/3 2000 м
[Cu med, cong Ac trans Ci sp]
+22.4 +5.8 34 +23 +25 комфорт 1014.3 982.0
В 6 {13} 40 км 4/1 2000 м
[Cu hum Ac trans Ci sp]
+21.7 +5.1 34 +22 +24 комфорт 1014.3 981.9
В 7 {12} 35 км 5/1 2000 м
[Cu hum Ac trans Cs]
+21.4 +5.7 36 +22 +23 комфорт 1014.2 981.8
В 5 40 км 8/1 2000 м
[Cu med, cong Ac trans Cs]
+20.2 +4.2 35 +21 +21 комфорт 1014.3 981.8
В 6 {13} 45 км 8/1 2000 м
[Cu med, cong Ac trans Cs]
+19.2 +3.4 35 +19 +19 1014.5 981.8 +13.5 +22.7
В 5 50 км 9/0
[Ac trans Cs]
+17.7 +5.0 43 +17 +17 1015.2 982.4
В 5 45 км 6/0
[Ci sp]
+16.8 +4.1 43 +16 +16 1015.5 982.5
В 4 45 км н/о +15.9 +1.9 39 +15 +15 1015.5 982.4
В 3 40 км н/о +14.3 +1.9 43 +14 +14 1015.6 982.4
СВ 1 40 км н/о +12.6 +1.9 48 +13 +13 1015.4 982.0
СВ 3 50 км н/о +12.1 +1.4 48 +11 +11 1015.3 981.8
СВ 3 45 км н/о +11.3 +1.5 51 +10 +10 1015.1 981.5
СВ 3 40 км н/о +10.6 +1.4 53 +9 +9 1014.6 981.0
СВ 3 45 км н/о +10.2 +1.8 56 +8 +8 1014.5 980.8
СВ 3 35 км н/о +10.8 +2.4 56 +9 +9 1014.3 980.7
СВ 4 35 км 5/0
[Cs]
+12.6 +3.3 53 +11 +12 1013.7 980.3
СВ 5 30 км 8/0
[Cs]
+14.8 +3.9 48 +14 +16 1013.2 980.1 +10.1 +19.2
В 7-12 {12} 30 км 8/0
[Cs]
+17.2 +3.8 41 +16 +18 1013.1 980.3
В 7-12 {12} 25 км 9/0
[Cs]
+18.1 +3.9 39 +17 +20 1013.0 980.3
В 6-11 {13} 25 км 9/0
[Ac trans Cs]
+19.1 +4.4 38 +19 +24 1012.7 980.1
В 7-13 {13} 25 км 9/0
[Ac und Cs]
+19.2 +1.2 30 +19 +21 1012.8 980.2
В 8 {13} 30 км 9/0
[Ac As]
+19.3 +2.2 32 +19 +20 1012.4 979.8
В 6 {13} 30 км 9/0
[Ac As]
+19.7 +2.5 32 +20 +22 1012.3 979.8
Ю 5 {13} 30 км слаб. дождь 10/6 1000 м
[Sc Ac As]
+17.9 +4.5 41 +18 +18 1012.5 979.8
ЮВ 4 35 км слаб. дождь 10/10 1000 м
[Sc]
+17.3 +3.9 41 +17 +17 1012.8 980.0
ЮВ 5 {13} 30 км слаб. ливневой дождь 10/10 1500 м
[Cb cap]
+15.1 +6.1 55 +14 +14 1013.7 980.6
ЮВ 3 {10} 20 км слаб. ливневой дождь 10/8 1000 м
[Cb cap Ac As]
+12.5 +9.1 80 +11 +11 1014.1 980.7
СВ 1 25 км в посл. час ливневой дождь 10/10 1000 м
[Cb cap]
+11.9 +10.3 90 +12 +12 1014.1 980.6
В 1 {13} 20 км {ливн. дождь, дождь} 9/9 1000 м
[Cb calv]
+12.1 +10.7 91 +12 +12 1013.7 980.3 +11.7 +19.9 3
В 2 20 км 10/10 1000 м
[Sc]
+12.1 +10.3 89 +11 +11 1014.0 980.6
штиль 0 15 км в посл. час ливневой дождь 8/6 1000 м
[Cb cap Ac trans]
+11.2 +9.9 92 +10 +10 1013.9 980.4
ЮВ 1 15 км в посл. час туман н/о +10.5 +9.6 94 +10 +10 1014.2 980.6
штиль 0 8000 м дымка н/о +10.1 +9.2 94 +9 +9 1014.2 980.5
штиль 0 1100 м в посл. час туман н/о +9.0 +8.2 95 +8 +8 1014.3 980.5
штиль 0 5000 м в посл. час туман н/о +9.2 +8.4 95 +8 +8 1014.4 980.6 0.6
штиль 0 6000 м дымка н/о +9.2 +8.6 96 +8 +8 1014.6 980.8
ЮЗ 1 9000 м дымка н/о +9.5 +8.9 96 +9 +9 1014.5 980.7
Ю 1 5000 м в посл. час туман н/о +9.2 +8.6 96 +8 +8 1014.7 980.9
штиль 0 6000 м туман н/о +9.2 +8.7 97 +8 +8 1015.1 981.3
Ю 1 10 км 4/0
[Ac trans Ci fib]
+11.5 +10.9 96 +11 +13 1014.7 981.2
Ю 3 35 км 3/0
[Ac trans Ci fib]
+14.2 +10.4 78 +13 +17 1014.9 981.7 +8.7 +14.2 0.6 3.1
Ю 3 30 км 4/3 480 м
[Cu hum Ac trans Cc]
+14.9 +10.5 75 +14 +19 1015.2 982.0
ЮЗ 3 40 км 4/1 600 м
[Cu hum Ac trans Ci sp]
+17.0 +10.1 64 +17 +24 1014.9 982.0
Ю 2 25 км 4/1 600 м
[Cu med, cong Ac trans Ci fib]
+17.8 +9.9 60 +18 +29 1014.8 982.0
2 35 км 5/1 1000 м
[Cu med, cong Ac trans Ci sp]
+19.0 +9.5 54 +20 +32 1014.5 981.8
В 3 40 км 6/4 1000 м
[Cu med, cong Ac trans Ci sp]
+20.2 +7.9 45 +22 +29 комфорт 1014.1 981.6
ЮЗ 1 45 км 8/3 1500 м
[Cb calv Ac trans Ci sp]
+21.0 +7.2 41 +23 +31 комфорт 1013.7 981.3
Ю 2 30 км 6/4 1500 м
[Cb cap Ac cuf Ci sp]
+22.3 +6.5 36 +23 +30 комфорт 1013.1 980.8
ЮЗ 2 35 км 8/3 1500 м
[Cb cap Ac cuf Ci ing]
+22.8 +6.9 36 +24 +28 комфорт 1012.6 980.4
Ю 2 40 км 9/3 1500 м
[Cb cap Ac cuf Ci ing]
+21.0 +6.5 39 +23 +25 комфорт 1012.5 980.1
Ю 2 50 км 9/1 1500 м
[Cb cap Ac cuf Ci ing]
+20.5 +6.4 40 +22 +24 комфорт 1012.4 980.0
ЮЗ 2 45 км 9/1 1500 м
[Cb cap Ac cuf Ci ing]
+20.5 +8.8 47 +22 +23 комфорт 1012.4 980.0
Ю 1 50 км 9/1 1500 м
[Cb cap Ac trans Ci ing]
+18.5 +9.8 57 +20 +20 1012.7 980.0 +14.2 +23.0
С 1 50 км 9/3 1500 м
[Cb cap Ac und Ci sp]
+16.8 +11.3 70 +18 +18 1013.3 980.4
СЗ 1 45 км зарница 9/5 1500 м
[Cb cap Ac As]
+16.6 +9.8 64 +18 +18 1013.9 981.0
С 1 35 км н/о +15.8 +9.9 68 +17 +17 1013.8 980.8
В 1 35 км н/о +14.2 +10.4 78 +15 +15 1013.7 980.5
В 1 40 км н/о +13.4 +10.9 85 +14 +14 1013.6 980.3
штиль 0 45 км н/о +13.2 +11.1 87 +13 +13 1013.4 980.1
штиль 0 40 км н/о +13.0 +11.1 88 +12 +12 1013.2 979.9
штиль 0 27 км н/о +12.0 +10.7 92 +11 +11 1013.1 979.7
СВ 1 25 км н/о +11.5 +10.4 93 +11 +11 1013.0 979.5
В 1 18 км н/о +12.2 +10.4 89 +12 +12 1013.3 979.9
ЮВ 2 30 км 6/0
[Ac trans Ci sp]
+14.0 +10.0 77 +14 +15 1013.3 980.1
В 1 20 км 5/0
[Ac lent Ci sp]
+16.8 +9.9 64 +18 +22 1013.0 980.1 +11.4 +18.5
ЮВ 3 35 км 5/0
[Ac lent Cs]
+19.0 +9.2 53 +20 +25 1012.6 980.0
В 2 30 км 6/1 1000 м
[Cu hum Ac trans Cs]
+20.8 +9.4 48 +23 +31 комфорт 1012.4 980.0
Ю 3 30 км 9/3 1000 м
[Cu med, cong Ac trans Cs]
+20.9 +9.8 49 +23 +28 комфорт 1012.6 980.2
Ю 4 30 км 9/3 1000 м
[Cb cap Ac und Cs]
+20.3 +9.8 51 +22 +26 комфорт 1012.9 980.4
Ю 4 40 км 9/3 1000 м
[Cu med, cong Ac As]
+19.2 +8.5 50 +20 +23 1012.9 980.3
Ю 4 35 км 9/3 1500 м
[Cu med, cong Ac trans Ci sp]
+19.7 +8.7 49 +21 +25 комфорт 1012.2 979.7
Ю 3 40 км 6/3 1500 м
[Cu med, cong Ac trans Ci sp]
+20.4 +10.2 52 +22 +28 комфорт 1011.6 979.2
Ю 4 45 км 5/3 1500 м
[Cu med, cong Ac lent Ci sp]
+21.9 +10.4 48 +24 +28 комфорт 1010.8 978.6
Ю 4 45 км 8/5 1000 м
[Cb cap Ac trans Ci sp]
+21.3 +9.8 48 +23 +24 комфорт 1010.3 978.0
ЮВ 2 50 км 9/6 1000 м
[Cb cap Ac trans Ci sp]
+20.2 +10.6 54 +22 +23 комфорт 1010.2 977.8
З 3 50 км гроза, ливневой дождь 9/6 1000 м
[Cb cap Ac cuf Ci sp]
+18.7 +11.7 64 +20 +20 1010.5 977.9
З 2 {8} 5000 м гроза, ливневой дождь 9/9 1000 м
[Cb cap]
+15.9 +13.6 86 +16 +16 1011.4 978.5 +15.9 +22.2 3
В 2 20 км в посл. час гроза {ливн. дождь} 5/4 1000 м
[Cb cap Ac trans]
+14.7 +13.7 94 +14 +14 1011.6 978.5
штиль 0 10 км туман поземный 1/0
[Ac trans]
+13.6 +13.0 96 +13 +13 1011.8 978.6
Ю 1 200 м туман н/о +12.5 +12.0 97 +12 +12 1012.2 978.9
ЮЗ 1 1000 м туман н/о +12.0 +11.5 97 +12 +12 1012.7 979.3
Ю 1 700 м туман н/о +11.1 +10.5 96 +11 +11 1012.9 979.4
ЮЗ 2 5000 м туман н/о +11.4 +10.9 97 +10 +10 1012.8 979.3 1
В 1 600 м туман н/о +10.6 +10.1 97 +10 +10 1012.6 979.0
Ю 2 3600 м в посл. час туман н/о +11.2 +10.7 97 +10 +10 1012.6 979.1
З 1 9000 м дымка н/о +11.3 +10.8 97 +11 +11 1012.9 979.4
В 1 3500 м дымка н/о +10.7 +10.1 96 +10 +10 1013.2 979.6
В 1 15 км 9/0
[Ac trans Cs]
+13.0 +11.7 92 +13 +15 1013.3 980.0
ЮВ 1 25 км 10/0
[Ac trans Cs]
+14.7 +12.7 88 +15 +19 1013.4 980.3 +10.3 +15.9 1 4.4
СВ 1 30 км 10/0
[Ac trans Cs]
+15.9 +13.0 83 +17 +23 1013.6 980.6
В 1 25 км 9/1 1000 м
[Cu med, cong Ac trans Cs]
+17.1 +13.4 79 +18 +25 1013.7 980.8
штиль 0 30 км 9/1 1000 м
[Cu med, cong Ac trans Cs]
+18.5 +10.6 60 +19 +29 1013.5 980.8
Ю 1 35 км 8/1 1000 м
[Cu med, cong Ci sp]
+19.9 +11.6 59 +23 +37 комфорт 1013.5 981.0
Ю 2 35 км 8/1 1000 м
[Cu med, cong Ac und Ci sp]
+21.3 +9.2 46 +23 +32 комфорт 1013.3 980.9
ЮВ 2 25 км 8/1 1000 м
[Cu med, cong Ac trans Ci sp]
+22.8 +7.3 37 +24 +32 комфорт 1012.5 980.3
В 2 35 км 9/1 1000 м
[Cu med, cong Ac und]
+22.8 +7.3 37 +24 +28 комфорт 1012.2 980.0
В 1 20 км 9/9 1000 м
[Cb cap]
+22.4 +7.8 39 +23 +25 комфорт 1012.2 980.0
ЮВ 2 25 км 9/9 1500 м
[Cu med, cong Ac As]
+21.4 0.0 24
ЮВ 3 30 км 9/9 1500 м
[Cb calv]
+20.2 +13.3 65 +23 +23 комфорт 1005.6 971.9
ЮВ 2 30 км 9/3 1500 м
[Cu med, cong Ci sp]
+20.2 +13.3 65 +23 +24 комфорт 1012.6 980.0
Местоположение метеостанции Катовице (Польша): широта 50.23 долгота 19.03 высота над уровнем моря 284 м.
В архиве по умолчанию представлена погода в Катовице за последнюю неделю. Архивные данные за месяц целиком и за предыдущие месяцы, начиная с января 2011 года, Вы можете получить, выбрав интересующий диапазон дат из раскрывающегося списка и нажав кнопку "Найти!".
*Определитесь, кто Вы:
Внимание! Время в таблицах - всемирное. Для получения местного времени необходимо прибавить поправку, которая равна 1 ч.
Некоторые строки с данными для отдельных станций могут быть выделены курсивом. Это означает, что фактические данные отсутствуют по различным причинам, а приведенные значения являются расчетными модельными данными для данного пункта наблюдений.
Смотрите также архив погоды в соседних городах и на ближайших метеорологических станциях:
Партнеры нашего сайта:      
Пояснения к столбцам:
  • Ветер - указаны скорость ветра в м/с - средняя за 10 мин, порывы в срок и между сроками (в фигурных скобках) и направление, откуда дует ветер: С - северный,
  • СВ - северо-восточный, В - восточный, ЮВ - юго-восточный, Ю - южный, ЮЗ - юго-западный, З - западный, СЗ - северо-западный.
  • Видимость - горизонтальная дальность видимости в метрах или километрах. При видимости от 1 до 10 км при отсутствии осадков обычно наблюдается дымка, при ухудшении видимости до 1 км и менее - туман. В сухую погоду видимость может ухудшаться дымом, пылью или мглою.
  • Явления - указаны атмосферные явления, наблюдавшиеся в срок или в последний час перед сроком; фигурными скобками обозначены явления, наблюдавшиеся между сроками (за 1-3 часа до срока); квадратными скобками обозначены град или гололедные отложения с указанием их диаметра в мм.
  • Облачность - указаны через наклонную черту общая и нижняя облачность в баллах и высота нижней границы облаков в метрах; квадратными скобками обозначены формы облаков: Ci - перистые, Cs - перисто-слоистые, Cc - перисто-кучевые, Ac - высококучевые, As - высокослоистые, Sc - слоисто-кучевые, Ns - слоисто-дождевые, Cu - кучевые, Cb - кучево-дождевые. Подробнее классификацию облаков см. в Атласе облаков (PDF).
  • T - Температура воздуха - температура, измеренная на высоте 2 м над землей.
  • Td - Температура точки росы - температура, при понижении до которой содержащийся в воздухе водяной пар достигнет насыщения.
  • f - Относительная влажность воздуха - влажноcть воздуха, измеренная на высоте 2 м над землей.
  • Te - Эффективная температура - температура, которую ощущает одетый по сезону человек в тени. Характеристика душности погоды. При расчете учитывается влияние влажности воздуха и скорости ветра на теплоощущения человека.
  • Tes - Эффективная температура на солнце - температура, которую ощущает человек, с поправкой на солнечный нагрев. Характеристика знойности погоды. Зависит от высоты солнца над горизонтом, облачности и скорости ветра. Ночью, в пасмурную погоду, а также при ветре 12 м/с и более поправка равна нулю.
  • P - Атмосферное давление - приведенное к уровню моря атмосферное давление.
  • Po - Атмосферное давление - измеренное на уровне метеостанции атмосферное давление.
  • Tmin - Минимальная температура - минимум температуры воздуха на высоте 2 м над землей.
  • Tmax - Максимальная температура - максимум температуры воздуха на высоте 2 м над землей.
  • R - Количество осадков - Количество выпавших осадков за период времени, мм. При наведении курсора мыши на число - период времени, за который выпало указанное количество осадков.
  • R24 - Количество осадков - Количество выпавших осадков за 24 часа, мм.
  • S - Снежный покров - Высота снежного покрова, см. При наведении курсора мыши на число - состояние снежного покрова и степень покрытия местности в баллах.